W4SNA-2 Weather Reports


Display with metric or nautical units.
time (UTC)temp
F
wind
direction
speed
MPH
gust
MPH
rain 1hr
in
rain 24hr
in
rain mn
in
humidity
%
barometer
mb
20260506231111 63 197 5.0 10.0 0.00 0.03 0.02 93 1013.5
20260506230612 63 202 4.0 10.0 0.00 0.03 0.02 93 1013.6
20260506230110 63 193 6.0 10.0 0.00 0.03 0.02 93 1013.3
20260506225611 63 191 5.0 9.0 0.00 0.03 0.02 93 1013.4
20260506225107 63 195 4.0 9.0 0.00 0.03 0.02 93 1013.5
20260506224439 64 200 1.0 8.0 0.00 0.03 0.02 92 1014.1
20260506223938 64 185 2.0 8.0 0.00 0.03 0.02 92 1014.1
20260506223438 64 197 1.0 8.0 0.00 0.03 0.02 92 1014.4
20260506222938 64 195 2.0 12.0 0.00 0.03 0.02 92 1014.6
20260506222438 64 192 4.0 14.0 0.00 0.03 0.02 92 1014.4
20260506221938 64 200 5.0 14.0 0.00 0.03 0.02 92 1014.4
20260506221438 64 199 5.0 11.0 0.00 0.03 0.02 92 1014.2
20260506220938 64 200 4.0 11.0 0.00 0.03 0.02 92 1014.2
20260506220438 64 197 4.0 8.0 0.00 0.03 0.02 92 1014.3
20260506215938 64 199 4.0 9.0 0.00 0.03 0.02 92 1014.0
20260506215438 64 195 3.0 9.0 0.00 0.03 0.02 92 1014.1
20260506214938 64 199 2.0 8.0 0.00 0.03 0.02 92 1014.1
20260506214438 64 193 1.0 7.0 0.00 0.03 0.02 91 1014.3
20260506213838 64 219 1.0 8.0 0.00 0.03 0.02 91 1014.3
20260506213337 64 0 0.0 5.0 0.00 0.03 0.02 92 1013.9
20260506212837 64 0 0.0 9.0 0.00 0.03 0.02 92 1013.8
20260506212337 64 196 3.0 10.0 0.00 0.03 0.02 91 1013.8
20260506211837 64 197 4.0 10.0 0.00 0.03 0.02 91 1013.4
20260506211337 64 199 3.0 9.0 0.00 0.03 0.02 91 1013.4
20260506210837 64 200 4.0 14.0 0.00 0.03 0.02 91 1013.2
20260506210337 64 199 3.0 15.0 0.00 0.03 0.02 91 1013.2
20260506205837 64 187 3.0 17.0 0.00 0.03 0.02 91 1013.5
20260506205337 64 196 5.0 17.0 0.00 0.03 0.02 91 1013.5
20260506204837 64 204 5.0 15.0 0.00 0.03 0.02 92 1013.7
20260506204337 64 201 5.0 15.0 0.00 0.03 0.02 92 1013.7
20260506203837 64 196 8.0 19.0 0.00 0.03 0.02 91 1013.7
20260506203337 64 192 8.0 19.0 0.00 0.03 0.02 91 1013.7
20260506202837 64 197 9.0 15.0 0.00 0.03 0.02 92 1013.8
20260506202115 64 202 6.0 16.0 0.00 0.03 0.02 92 1013.8
20260506201612 64 196 5.0 16.0 0.00 0.03 0.02 93 1014.0
20260506201112 63 193 7.0 16.0 0.00 0.03 0.02 92 1013.9
20260506200437 63 196 8.0 18.0 0.00 0.03 0.02 93 1014.0
20260506195938 63 199 5.0 22.0 0.00 0.03 0.02 93 1014.0
20260506195438 63 200 8.0 22.0 0.00 0.03 0.02 94 1014.0
20260506194937 63 198 5.0 16.0 0.00 0.03 0.02 94 1013.9
20260506194437 62 199 5.0 16.0 0.00 0.03 0.02 95 1013.8
20260506193937 62 198 6.0 12.0 0.00 0.03 0.02 95 1013.7
20260506193437 62 209 3.0 14.0 0.00 0.03 0.02 95 1013.7
20260506192937 62 200 4.0 24.0 0.00 0.03 0.02 95 1013.8
20260506192437 62 200 6.0 24.0 0.00 0.03 0.02 95 1014.1
20260506191937 61 200 8.0 21.0 0.00 0.03 0.02 96 1014.0
20260506191438 61 199 7.0 21.0 0.00 0.03 0.02 96 1013.9
20260506190937 61 191 5.0 19.0 0.00 0.03 0.02 96 1013.9
20260506190441 61 198 7.0 18.0 0.00 0.03 0.02 97 1013.9
20260506185537 60 194 13.0 30.0 0.00 0.03 0.02 97 1013.5
20260506185037 60 193 13.0 26.0 0.00 0.03 0.02 97 1013.6
20260506184537 60 185 13.0 29.0 0.00 0.03 0.02 98 1013.3
20260506184037 60 196 15.0 29.0 0.01 0.03 0.02 98 1013.2
20260506183539 60 192 14.0 25.0 0.01 0.03 0.02 98 1013.3
20260506183037 59 194 9.0 20.0 0.01 0.03 0.02 98 1013.5
20260506182539 60 189 10.0 16.0 0.01 0.03 0.02 98 1013.4
20260506182037 60 181 6.0 11.0 0.02 0.03 0.02 99 1013.8
20260506181537 59 187 2.0 10.0 0.02 0.03 0.02 98 1013.6
20260506181037 59 178 1.0 10.0 0.02 0.03 0.02 98 1013.4
20260506180537 59 177 5.0 10.0 0.02 0.03 0.02 98 1013.5
20260506180037 58 182 6.0 10.0 0.02 0.03 0.02 98 1013.7
20260506175537 58 183 2.0 8.0 0.02 0.03 0.02 98 1014.2
20260506174505 58 197 7.0 15.0 0.02 0.03 0.02 97 1015.0
20260506174007 58 194 6.0 11.0 0.01 0.02 0.01 97 1015.4
20260506173505 58 199 4.0 11.0 0.01 0.02 0.01 97 1015.5
20260506173005 58 182 3.0 11.0 0.01 0.02 0.01 96 1015.3
20260506172505 58 198 3.0 9.0 0.01 0.02 0.01 96 1015.6
20260506172005 58 201 3.0 8.0 0.00 0.01 0.00 95 1015.8
20260506171505 58 199 1.0 8.0 0.00 0.01 0.00 95 1015.8
20260506171006 58 0 0.0 8.0 0.00 0.01 0.00 94 1015.8
20260506170506 59 0 0.0 8.0 0.00 0.01 0.00 94 1015.8
20260506170005 59 186 3.0 10.0 0.00 0.01 0.00 94 1015.8
20260506165505 59 203 4.0 10.0 0.00 0.01 0.00 92 1015.7
20260506165006 59 189 4.0 12.0 0.00 0.01 0.00 92 1015.6
20260506164505 59 187 4.0 18.0 0.01 0.01 0.00 93 1015.7
20260506164005 58 195 8.0 18.0 0.01 0.01 0.00 93 1015.7
20260506163505 58 192 7.0 17.0 0.01 0.01 0.00 93 1015.6
20260506163006 58 193 4.0 17.0 0.01 0.01 0.00 94 1015.6
20260506162505 57 202 9.0 16.0 0.01 0.01 0.00 94 1015.6
20260506162005 57 197 8.0 15.0 0.01 0.01 0.00 94 1015.5
20260506161505 57 196 6.0 16.0 0.01 0.01 0.00 94 1015.4
20260506161005 57 196 8.0 18.0 0.01 0.01 0.00 94 1015.6
20260506160505 57 199 10.0 18.0 0.01 0.01 0.00 95 1015.4
20260506160005 57 197 6.0 13.0 0.01 0.01 0.01 94 1015.4
20260506155505 57 197 7.0 13.0 0.01 0.01 0.01 94 1015.4
20260506155005 57 199 7.0 15.0 0.01 0.01 0.01 94 1015.2
20260506154505 57 198 3.0 15.0 0.00 0.00 0.00 94 1015.1
20260506153448 57 195 5.0 11.0 0.00 0.00 0.00 94 1014.7
20260506152154 57 195 3.0 13.0 0.00 0.00 0.00 93 1014.8
20260506151654 57 194 2.0 13.0 0.00 0.00 0.00 93 1014.9
20260506151154 57 201 3.0 10.0 0.00 0.00 0.00 93 1014.9
20260506150654 57 200 2.0 8.0 0.00 0.00 0.00 93 1015.1
20260506150154 57 193 4.0 11.0 0.00 0.00 0.00 92 1014.9
20260506145654 58 189 2.0 16.0 0.00 0.00 0.00 91 1015.0
20260506145155 58 195 4.0 16.0 0.00 0.00 0.00 90 1015.0
20260506144726 58 193 4.0 15.0 0.00 0.00 0.00 89 1014.9
20260506144654 58 193 4.0 15.0 0.00 0.00 0.00 89 1014.9
20260506144155 58 201 9.0 14.0 0.00 0.00 0.00 89 1014.7
20260506143654 58 198 4.0 11.0 0.00 0.00 0.00 90 1014.7
20260506143155 58 195 7.0 11.0 0.00 0.00 0.00 90 1014.6
20260506142654 58 193 3.0 8.0 0.00 0.00 0.00 89 1014.6
20260506142155 58 192 2.0 7.0 0.00 0.00 0.00 88 1014.3
20260506141654 58 202 2.0 6.0 0.00 0.00 0.00 88 1014.7
20260506141155 58 0 0.0 8.0 0.00 0.00 0.00 88 1014.7
20260506140654 58 200 3.0 10.0 0.00 0.00 0.00 88 1014.9
20260506140155 58 199 2.0 10.0 0.00 0.00 0.00 89 1014.8
20260506135654 58 195 1.0 12.0 0.00 0.00 0.00 89 1014.7
20260506135155 58 193 5.0 12.0 0.00 0.00 0.00 89 1014.7
20260506134654 58 198 3.0 10.0 0.00 0.00 0.00 88 1014.8
20260506134021 58 195 4.0 11.0 0.00 0.00 0.00 88 1014.5
20260506133525 58 196 5.0 10.0 0.00 0.00 0.00 88 1014.4
20260506133021 58 183 3.0 13.0 0.00 0.00 0.00 88 1014.3
20260506132521 57 197 4.0 13.0 0.00 0.00 0.00 88 1014.4
20260506132021 57 203 7.0 20.0 0.00 0.00 0.00 89 1014.4
20260506131524 57 194 4.0 20.0 0.00 0.00 0.00 89 1014.5
20260506131025 57 190 7.0 20.0 0.00 0.00 0.00 89 1014.8
20260506130527 56 199 8.0 16.0 0.00 0.00 0.00 89 1014.7
20260506130021 56 195 2.0 12.0 0.00 0.00 0.00 89 1014.5
20260506125523 56 196 3.0 12.0 0.00 0.00 0.00 89 1014.7
20260506125021 56 191 3.0 9.0 0.00 0.00 0.00 90 1014.6
20260506124454 56 201 6.0 9.0 0.00 0.00 0.00 89 1014.6
20260506123955 56 198 2.0 10.0 0.00 0.00 0.00 90 1014.6
20260506123455 56 188 2.0 12.0 0.00 0.00 0.00 90 1014.4
20260506122955 56 191 1.0 15.0 0.00 0.00 0.00 90 1014.2
20260506122528 56 183 5.0 15.0 0.00 0.00 0.00 89 1014.0
20260506122454 56 183 5.0 15.0 0.00 0.00 0.00 89 1014.0
20260506121954 56 200 8.0 14.0 0.00 0.00 0.00 89 1014.3
20260506121454 56 197 7.0 13.0 0.00 0.00 0.00 89 1014.6
20260506120955 56 199 6.0 16.0 0.00 0.00 0.00 89 1015.0
20260506120454 56 199 7.0 17.0 0.00 0.00 0.00 89 1014.8
20260506115954 56 200 9.0 21.0 0.00 0.00 0.00 89 1014.8
20260506115454 56 198 11.0 21.0 0.00 0.00 0.00 89 1014.5
20260506114954 56 194 6.0 17.0 0.00 0.00 0.00 89 1014.5
20260506114455 56 196 9.0 19.0 0.00 0.00 0.00 89 1014.4
20260506113955 56 196 10.0 19.0 0.00 0.00 0.00 89 1014.3
20260506113454 56 201 11.0 19.0 0.00 0.00 0.00 89 1014.1
20260506112957 56 192 10.0 22.0 0.00 0.00 0.00 89 1013.9
20260506112455 56 196 11.0 25.0 0.00 0.00 0.00 89 1013.8
20260506111954 56 188 12.0 28.0 0.00 0.00 0.00 89 1014.0
20260506111535 56 194 14.0 28.0 0.00 0.00 0.00 89 1013.8
20260506111457 56 194 14.0 28.0 0.00 0.00 0.00 89 1013.8
20260506111036 56 186 14.0 22.0 0.00 0.00 0.00 89 1013.6
20260506110958 56 186 14.0 22.0 0.00 0.00 0.00 89 1013.6
20260506105649 56 198 9.0 22.0 0.00 0.00 0.00 88 1013.6
20260506105155 56 199 13.0 22.0 0.00 0.00 0.00 89 1013.8
20260506104650 56 200 11.0 21.0 0.00 0.00 0.00 88 1013.9
20260506104149 56 195 10.0 26.0 0.00 0.00 0.00 88 1013.8
20260506103649 56 198 13.0 26.0 0.00 0.00 0.00 88 1013.7
20260506103149 56 193 8.0 19.0 0.00 0.00 0.00 88 1013.9
20260506102649 56 201 9.0 19.0 0.00 0.00 0.00 88 1013.6
20260506102149 56 199 10.0 19.0 0.00 0.00 0.00 88 1013.4
20260506101649 56 196 11.0 19.0 0.00 0.00 0.00 88 1013.5
20260506101150 56 195 9.0 30.0 0.00 0.00 0.00 88 1013.5
20260506100649 56 194 11.0 30.0 0.00 0.00 0.00 88 1013.4
20260506100150 56 197 10.0 19.0 0.00 0.00 0.00 88 1013.6
20260506095649 56 199 10.0 21.0 0.00 0.00 0.00 88 1013.4
20260506095149 56 189 11.0 21.0 0.00 0.00 0.00 88 1013.5
20260506094649 57 198 12.0 21.0 0.00 0.00 0.00 88 1013.5
20260506094149 57 196 9.0 20.0 0.00 0.00 0.00 88 1013.6
20260506093649 57 191 8.0 20.0 0.00 0.00 0.00 87 1013.6
20260506093149 57 196 9.0 16.0 0.00 0.00 0.00 87 1013.5
20260506092649 57 197 9.0 16.0 0.00 0.00 0.00 87 1013.4
20260506092149 57 196 8.0 17.0 0.00 0.00 0.00 87 1013.6
20260506091649 57 198 9.0 17.0 0.00 0.00 0.00 87 1013.7
20260506091149 57 197 8.0 18.0 0.00 0.00 0.00 87 1013.6
20260506090650 57 196 8.0 18.0 0.00 0.00 0.00 87 1013.8
20260506090149 57 198 8.0 16.0 0.00 0.00 0.00 87 1013.7
20260506085649 57 200 9.0 15.0 0.00 0.00 0.00 86 1013.9
20260506084621 57 191 7.0 15.0 0.00 0.00 0.00 86 1013.9
20260506083838 57 192 7.0 16.0 0.00 0.00 0.00 86 1014.0
20260506083339 57 193 9.0 16.0 0.00 0.00 0.00 86 1013.8
20260506082838 57 194 8.0 15.0 0.00 0.00 0.00 85 1013.8
20260506082338 57 195 8.0 17.0 0.00 0.00 0.00 85 1014.0
20260506081839 57 185 8.0 17.0 0.00 0.00 0.00 85 1013.9
20260506081338 58 196 9.0 17.0 0.00 0.00 0.00 84 1013.9
20260506080839 58 186 9.0 18.0 0.00 0.00 0.00 84 1013.9
20260506080338 58 200 11.0 19.0 0.00 0.00 0.00 84 1013.9
20260506073338 58 187 8.0 18.0 0.00 0.00 0.00 83 1014.3
20260506072838 58 198 9.0 18.0 0.00 0.00 0.00 83 1014.3
20260506072338 58 194 9.0 18.0 0.00 0.00 0.00 82 1014.2
20260506071839 58 192 8.0 22.0 0.00 0.00 0.00 82 1014.1
20260506071339 58 198 10.0 30.0 0.00 0.00 0.00 82 1013.9
20260506070841 58 190 13.0 31.0 0.00 0.00 0.00 81 1014.0
20260506070338 58 197 10.0 31.0 0.00 0.00 0.00 81 1014.1
20260506062338 59 191 11.0 20.0 0.00 0.00 0.00 79 1014.6
20260506061838 59 190 10.0 23.0 0.00 0.00 0.00 79 1014.4
20260506061338 59 187 11.0 23.0 0.00 0.00 0.00 78 1014.5
20260506060838 59 194 11.0 21.0 0.00 0.00 0.00 78 1014.5
20260506060338 59 188 9.0 21.0 0.00 0.00 0.00 77 1014.4
20260506051154 61 192 11.0 20.0 0.00 0.00 0.00 72 1014.6
20260506050654 61 190 11.0 18.0 0.00 0.00 0.00 71 1014.5
20260506050154 61 190 10.0 19.0 0.00 0.00 0.00 71 1014.5
20260506044635 62 195 12.0 22.0 0.00 0.00 0.00 69 1014.8
20260506044136 62 192 11.0 22.0 0.00 0.00 0.00 68 1014.8
20260506043637 62 193 11.0 21.0 0.00 0.00 0.00 67 1014.7
20260506043135 62 197 11.0 19.0 0.00 0.00 0.00 67 1014.7
20260506042636 62 192 11.0 20.0 0.00 0.00 0.00 67 1014.7
20260506042137 62 185 9.0 20.0 0.00 0.00 0.00 66 1014.6
20260506041520 62 192 11.0 23.0 0.00 0.00 0.00 65 1014.7
20260506041020 62 199 12.0 20.0 0.00 0.00 0.00 64 1014.8
20260506040520 63 195 11.0 20.0 0.00 0.00 0.00 63 1014.9
20260506040020 63 197 11.0 19.0 0.00 0.00 0.00 63 1015.0
20260506035521 63 190 9.0 19.0 0.00 0.00 0.00 62 1014.9
20260506035020 63 188 9.0 19.0 0.00 0.00 0.00 61 1014.9
20260506034521 63 198 9.0 17.0 0.00 0.00 0.00 61 1014.9
20260506034020 63 198 10.0 19.0 0.00 0.00 0.00 61 1014.9
20260506033522 63 194 9.0 19.0 0.00 0.00 0.00 60 1014.8
20260506033020 63 195 8.0 16.0 0.00 0.00 0.00 60 1015.0
20260506032520 64 198 7.0 15.0 0.00 0.00 0.00 59 1015.0
20260506032020 64 192 6.0 15.0 0.00 0.00 0.00 59 1015.0
20260506031522 64 198 7.0 13.0 0.00 0.00 0.00 58 1015.1
20260506031020 64 189 6.0 13.0 0.00 0.00 0.00 58 1015.1
20260506030521 64 195 7.0 12.0 0.00 0.00 0.00 58 1015.1
20260506030020 64 199 8.0 15.0 0.00 0.00 0.00 57 1015.2
20260506025521 64 196 8.0 15.0 0.00 0.00 0.00 57 1015.4
20260506025020 64 199 7.0 16.0 0.00 0.00 0.00 57 1015.3
20260506024520 64 197 8.0 16.0 0.00 0.00 0.00 57 1015.3
20260506024020 65 197 7.0 17.0 0.00 0.00 0.00 57 1015.3
20260506023520 65 199 6.0 17.0 0.00 0.00 0.00 56 1015.4
20260506023020 65 196 6.0 18.0 0.00 0.00 0.00 56 1015.2
20260506022520 65 200 7.0 18.0 0.00 0.00 0.00 55 1015.4
20260506022020 66 198 6.0 15.0 0.00 0.00 0.00 55 1015.5
20260506021520 66 198 6.0 14.0 0.00 0.00 0.00 55 1015.4
20260506021020 66 192 6.0 14.0 0.00 0.00 0.00 55 1015.5
20260506020520 66 200 5.0 14.0 0.00 0.00 0.00 55 1015.5
20260506020020 66 194 6.0 18.0 0.00 0.00 0.00 54 1015.5
20260506015520 66 194 6.0 18.0 0.00 0.00 0.00 54 1015.4
20260506015020 66 195 6.0 17.0 0.00 0.00 0.00 53 1015.4
20260506014521 66 195 6.0 15.0 0.00 0.00 0.00 54 1015.5
20260506014020 66 198 7.0 11.0 0.00 0.00 0.00 54 1015.5
20260506013521 66 200 4.0 13.0 0.00 0.00 0.00 54 1015.5
20260506013020 66 196 4.0 13.0 0.00 0.00 0.00 54 1015.5
20260506012521 66 197 4.0 14.0 0.00 0.00 0.00 53 1015.6
20260506012020 67 204 5.0 14.0 0.00 0.00 0.00 53 1015.5
20260506011521 67 198 4.0 12.0 0.00 0.00 0.00 53 1015.5
20260506011020 66 200 4.0 15.0 0.00 0.00 0.00 53 1015.5
20260506010521 66 194 5.0 15.0 0.00 0.00 0.00 53 1015.4
20260506010020 66 197 5.0 14.0 0.00 0.00 0.00 53 1015.3
20260506005521 66 199 6.0 14.0 0.00 0.00 0.00 53 1015.2
20260506005020 66 206 4.0 15.0 0.00 0.00 0.00 53 1015.2
20260506004521 67 195 5.0 15.0 0.00 0.00 0.00 53 1015.1
20260506004020 67 195 5.0 14.0 0.00 0.00 0.00 52 1015.2
20260506003521 67 196 5.0 12.0 0.00 0.00 0.00 52 1015.1
20260506003020 67 203 4.0 12.0 0.00 0.00 0.00 52 1015.2
20260506002522 67 198 5.0 12.0 0.00 0.00 0.00 52 1015.2
20260506002020 67 197 4.0 12.0 0.00 0.00 0.00 51 1015.1
20260506001521 67 194 4.0 16.0 0.00 0.00 0.00 51 1015.1
20260506001020 67 199 5.0 16.0 0.00 0.00 0.00 50 1015.1
20260506000521 67 196 7.0 18.0 0.00 0.00 0.00 50 1015.0
20260506000020 68 200 4.0 18.0 0.00 0.00 0.00 50 1015.0
20260505235521 68 195 5.0 13.0 0.00 0.00 0.00 50 1014.9
20260505235024 68 205 6.0 13.0 0.00 0.00 0.00 50 1015.0
20260505234524 68 198 6.0 12.0 0.00 0.00 0.00 49 1014.9
20260505234021 68 202 4.0 13.0 0.00 0.00 0.00 49 1014.9
20260505233524 68 200 5.0 14.0 0.00 0.00 0.00 48 1015.0
20260505233022 68 198 6.0 14.0 0.00 0.00 0.00 48 1014.7
20260505232521 68 196 7.0 15.0 0.00 0.00 0.00 48 1014.6
20260505232020 68 192 5.0 15.0 0.00 0.00 0.00 49 1014.7